Location: Evergreen Manor
(41.4083°N, 81.4939°W)
Time: 17:07:58
(UTC+00:00)

NOAA 6 - Pass Details

Date: 11 December 2019
Orbit: 773 x 786 km, 98.7° (Epoch: 29 January)

Event Time Altitude Azimuth Distance (km) Brightness Sun altitude
Rises 11:04:45 0° 13° (NNE) 3,259 7.2 -17.5°
Reaches altitude 10° 11:07:04 10° 14° (NNE) 2,329 6.5 -17.1°
Maximum altitude 11:12:13 86° 104° (ESE) 783 4.0 -16.2°
Drops below altitude 10° 11:17:20 10° 194° (SSW) 2,319 6.5 -15.3°
Sets 11:19:38 0° 194° (SSW) 3,244 7.3 -14.9°
